Back to catalog

STARLINK-11495

AliveCommunicationsVLEO
NORAD 62275·PAYLOAD·🇺🇸 United States

Launched Dec 8, 2024 from Cape Canaveral Space Force Station

Loading…

Next Passes (next 24 hours)

TLE

FreshSource: CelesTrak SupGP

Epoch: Sep 14, 2026, 13:54 UTC

1 62275C 24237J   26257.57965278  .00016941  00000+0  13168-3 0  2570
2 62275  43.0005 358.6794 0001540 263.8473  61.4610 15.70811860    17

Track STARLINK-11495 in real time with AllMySat

Download on the App Store